CAPE
27 15 19 16 24 27 30 43 53 70 45 37 41 46 44 63 29 0 0 0 14 103 0 0 0 0 47 135 39 6 19 1 2 0 0 6 0 0 0 0 0 1 49 706 733
14 8 23 32 42 79 94 86 75 86 85 10 10 60 63 61 22 0 0 0 16 97 0 0 0 0 230 153 44 24 5 0 0 0 0 0 0 0 0 0 0 0 463 765 615
6 20 35 33 40 98 147 120 131 103 87 13 3 26 75 21 17 0 0 0 0 142 14 0 0 84 198 151 28 1 2 0 0 0 0 3 0 0 0 0 0 0 0 104 246
18 34 40 22 34 75 134 117 86 96 52 8 39 99 124 21 7 0 56 0 0 102 69 1 0 78 73 16 35 0 0 0 18 15 0 0 0 0 0 0 0 0 9 66 74
28 33 36 40 47 90 82 38 49 94 14 59 120 84 7 1 0 0 0 2 4 110 20 24 0 19 0 35 25 1 0 4 2 0 0 0 0 0 0 0 0 0 0 0 40
34 22 12 12 44 101 34 26 29 77 96 62 78 65 3 0 2 2 0 11 35 37 42 28 0 0 27 28 3 0 0 1 7 1 0 0 0 0 0 0 0 0 0 0 0
22 24 1 18 37 90 46 15 72 123 47 75 119 49 4 0 19 0 42 3 55 38 82 10 0 1 36 19 0 0 23 10 0 0 0 0 0 0 0 0 0 0 0 0 0
16 19 1 20 6 23 20 46 104 171 201 154 129 58 0 0 1 0 16 5 12 15 49 59 7 7 50 7 6 15 14 14 0 0 0 0 0 0 0 0 0 0 0 0 0
21 14 0 15 0 19 0 16 141 171 189 185 20 27 2 72 0 0 0 0 11 30 72 91 30 13 28 18 17 36 0 0 0 0 0 0 0 0 0 0 0 0 0 0 0
23 7 3 2 0 0 13 45 18 73 70 66 37 4 1 15 5 0 0 0 23 105 49 86 37 23 10 2 0 0 0 0 0 0 0 0 0 0 0 0 0 0 0 0 0
13 4 5 0 2 0 0 0 0 0 8 0 2 4 0 4 62 9 0 8 38 62 5 22 3 0 0 0 0 0 0 0 0 0 0 0 0 0 0 0 0 0 0 0 0
8 3 7 0 0 0 0 0 2 1 0 4 7 0 0 13 5 0 0 12 21 4 6 15 3 0 0 0 0 0 0 0 0 0 0 0 0 0 0 0 0 0 0 0 0
1 2 3 1 0 0 0 0 1 0 0 0 0 0 0 0 2 3 11 4 1 4 4 3 0 0 0 3 0 0 0 0 0 0 0 0 0 0 0 0 0 0 0 0 0
3 2 1 0 0 0 0 0 0 0 0 0 2 1 2 0 4 11 23 2 20 4 9 13 0 0 0 0 0 0 0 0 0 0 0 0 0 0 0 0 0 0 0 0 0
5 1 0 2 0 0 0 0 0 0 0 0 0 4 0 0 5 0 11 11 5 0 0 5 3 0 0 0 1 0 0 0 0 1 2 0 0 0 0 0 0 0 0 0 0
5 0 0 0 0 0 0 0 0 0 0 0 2 0 0 0 15 0 1 2 0 0 0 0 0 5 0 6 18 1 6 18 2 0 0 0 0 0 0 0 0 0 0 0 0
1 2 0 0 0 0 0 0 0 0 0 0 1 6 1 2 2 7 10 0 0 0 0 0 0 0 0 1 3 1 4 2 2 0 0 0 0 0 0 0 0 0 0 0 0
0 0 0 0 0 0 0 0 0 0 0 0 1 0 0 2 1 1 3 0 0 0 0 0 0 1 0 2 1 1 0 0 0 0 0 0 0 0 0 0 0 0 0 0 0
0 0 0 0 0 0 0 0 0 0 0 0 0 5 0 0 0 5 4 1 0 0 0 0 0 1 0 1 0 0 0 0 0 0 0 0 0 0 0 0 0 0 0 0 0
0 0 0 0 0 0 0 0 0 0 0 0 0 1 0 1 0 7 4 0 0 0 0 0 0 1 1 0 0 0 0 0 1 0 0 0 0 0 0 0 0 0 0 0 0
0 0 0 0 0 0 0 0 0 0 0 0 0 1 0 1 1 4 2 0 0 0 0 0 0 2 0 1 0 0 0 0 0 0 0 0 0 0 0 0 0 0 0 0 0
0 0 0 0 0 1 0 0 0 0 0 0 0 1 0 1 0 0 0 0 0 0 1 0 0 0 0 0 0 0 0 0 0 0 0 0 0 0 0 0 0 0 0 0 0
0 0 0 0 0 0 0 0 0 0 0 0 0 0 0 0 0 0 0 0 0 0 0 0 0 0 0 0 0 0 0 0 0 0 0 0 0 0 0 0 0 0 0 0 0
0 0 0 0 0 0 0 0 0 0 0 0 0 0 0 0 0 0 0 0 0 0 0 0 0 0 0 0 0 0 0 0 0 0 0 0 0 0 0 0 0 0 0 0 0
0 0 0 0 0 0 0 1 0 2 0 0 0 0 0 0 0 0 0 0 0 0 0 0 0 0 0 0 0 0 0 0 0 0 0 0 0 0 0 0 0 0 0 0 0
0 0 0 0 0 0 0 0 2 2 0 0 0 0 0 0 0 0 0 0 0 0 0 0 0 0 0 0 0 0 0 0 0 0 0 0 0 0 0 0 0 0 0 0 0
0 0 0 0 0 0 0 0 0 0 1 0 0 0 0 0 0 0 0 0 0 0 0 0 0 0 0 0 0 0 0 0 0 0 0 0 0 0 0 0 0 0 0 0 0
CIN
-0 -1 -1 -0 -0 -0 -0 -0 -0 -0 -0 -0 -2 -0 -0 -0 -7 -0 -0 -0 -44 -35 -0 -0 -0 -0 -124 -47 -65 -19 -11 -1 -0 -0 -8 -36 -4 -0 -0 -0 -0 -5 -61 -80 -84
-1 -0 -0 -0 -0 -0 -0 -0 -0 -0 -0 -12 -2 -0 -1 -3 -3 -4 -0 -0 -59 -5 -0 -0 -0 -0 -4 -8 -22 -13 -0 -0 -0 -0 -0 -0 -2 -0 -0 -0 -0 -0 -88 -108 -106
-1 -0 -0 -0 -0 -0 -0 -0 -0 -0 -0 -2 -0 -2 -0 -7 -2 -0 -0 -0 -0 -4 -5 -0 -0 -20 -2 -7 -14 -2 -1 -0 -0 -0 -0 -1 -0 -0 -0 -0 -0 -0 -0 -115 -134
-0 -0 -0 -0 -0 -0 -0 -2 -2 -0 -3 -0 -7 -0 -1 -6 -4 -0 -5 -0 -0 -3 -10 -0 -0 -4 -1 -46 -17 -0 -0 -0 -48 -27 -0 -0 -0 -0 -0 -0 -0 -0 -34 -101 -102
-0 -0 -0 -0 -0 -0 -8 -12 -3 -0 -22 -2 -0 -5 -14 -0 -0 -0 -0 -0 -24 -0 -11 -4 -0 -2 -0 -29 -21 -9 -0 -75 -21 -0 -0 -0 -0 -0 -0 -0 -0 -0 -0 -0 -63
-0 -0 -0 -0 -0 -0 -11 -15 -7 -1 -0 -5 -10 -12 -6 -0 -7 -15 -1 -9 -20 -4 -9 -5 -0 -0 -6 -10 -18 -0 -3 -8 -19 -17 -0 -0 -0 -0 -0 -0 -0 -0 -0 -0 -0
-0 -0 -0 -0 -0 -4 -15 -49 -11 -0 -24 -6 -0 -4 -0 -8 -35 -1 -16 -14 -4 -3 -3 -16 -0 -1 -7 -21 -0 -0 -23 -9 -0 -0 -0 -0 -0 -0 -0 -0 -0 -0 -0 -0 -0
-0 -0 -0 -0 -1 -21 -54 -48 -29 -15 -6 -3 -3 -2 -0 -0 -52 -0 -6 -16 -10 -12 -22 -49 -15 -24 -11 -15 -30 -10 -25 -12 -0 -0 -0 -0 -0 -0 -0 -0 -0 -0 -0 -0 -0
-0 -0 -0 -0 -0 -33 -0 -109 -35 -24 -13 -4 -16 -13 -7 -19 -0 -0 -0 -0 -18 -25 -24 -29 -22 -4 -7 -3 -6 -8 -0 -0 -0 -0 -0 -0 -0 -0 -0 -0 -0 -0 -0 -0 -0
-0 -0 -0 -0 -0 -0 -78 -58 -73 -28 -22 -15 -8 -4 -6 -7 -19 -0 -4 -0 -1 -10 -1 -4 -5 -3 -7 -1 -0 -0 -0 -0 -0 -0 -0 -0 -0 -0 -0 -0 -0 -0 -0 -0 -0
-0 -0 -0 -0 -0 -0 -0 -0 -0 -0 -16 -0 -10 -1 -5 -31 -17 -6 -2 -1 -0 -13 -9 -3 -2 -0 -0 -0 -0 -0 -0 -0 -0 -0 -0 -0 -0 -0 -0 -0 -0 -0 -0 -0 -0
-0 -0 -0 -0 -0 -0 -0 -0 -0 -0 -0 -1 -2 -0 -0 -24 -3 -0 -0 -7 -0 -0 -1 -0 -0 -0 -0 -4 -10 -0 -0 -0 -0 -0 -0 -0 -0 -0 -0 -0 -0 -0 -0 -0 -0
-0 -0 -0 -0 -0 -0 -0 -0 -1 -0 -0 -3 -0 -0 -0 -0 -11 -1 -0 -3 -8 -0 -0 -0 -0 -0 -0 -18 -0 -0 -0 -0 -0 -0 -0 -0 -0 -0 -0 -0 -0 -0 -0 -0 -0
-0 -0 -0 -0 -0 -0 -0 -0 -0 -0 -0 -0 -0 -0 -0 -0 -41 -2 -1 -2 -1 -0 -1 -3 -0 -0 -1 -0 -0 -0 -0 -0 -0 -0 -0 -0 -0 -0 -0 -0 -0 -0 -0 -0 -0
-0 -0 -0 -0 -0 -0 -0 -0 -0 -0 -0 -0 -0 -7 -0 -0 -3 -0 -16 -1 -0 -0 -0 -0 -4 -0 -0 -0 -1 -1 -1 -2 -0 -19 -17 -0 -0 -0 -0 -0 -0 -0 -0 -0 -0
-0 -0 -0 -0 -0 -0 -0 -0 -0 -0 -0 -0 -0 -0 -0 -0 -0 -0 -0 -7 -1 -0 -12 -0 -0 -7 -0 -40 -24 -12 -20 -28 -14 -0 -0 -0 -0 -0 -0 -0 -0 -0 -0 -0 -0
-0 -0 -0 -0 -0 -0 -0 -0 -0 -0 -0 -0 -0 -1 -0 -0 -0 -0 -1 -0 -0 -1 -0 -3 -0 -0 -0 -9 -9 -7 -14 -2 -10 -6 -0 -0 -0 -0 -0 -0 -0 -0 -0 -0 -0
-0 -0 -0 -0 -0 -0 -0 -0 -0 -0 -0 -0 -0 -0 -0 -0 -0 -1 -4 -0 -0 -0 -0 -0 -2 -0 -0 -0 -0 -4 -0 -0 -0 -0 -0 -0 -0 -0 -0 -0 -0 -0 -0 -0 -0
-0 -0 -0 -0 -0 -0 -0 -0 -0 -0 -0 -0 -0 -2 -0 -0 -0 -0 -0 -0 -0 -0 -0 -0 -0 -0 -0 -0 -0 -0 -0 -0 -0 -0 -0 -0 -0 -0 -0 -0 -0 -0 -0 -0 -0
-0 -0 -0 -0 -0 -0 -0 -0 -0 -0 -0 -0 -0 -3 -3 -2 -0 -1 -1 -1 -3 -0 -0 -0 -0 -0 -0 -0 -0 -0 -0 -0 -14 -0 -0 -0 -0 -0 -0 -0 -0 -0 -0 -0 -0
-0 -0 -0 -0 -0 -0 -0 -0 -0 -0 -0 -0 -0 -2 -0 -3 -3 -2 -5 -0 -0 -0 -0 -0 -0 -0 -0 -0 -0 -0 -0 -3 -0 -0 -0 -0 -0 -0 -0 -0 -0 -0 -0 -0 -0
-0 -0 -0 -0 -0 -11 -0 -0 -0 -0 -0 -0 -0 -6 -0 -10 -0 -5 -0 -0 -0 -0 -3 -0 -0 -0 -0 -0 -0 -0 -0 -0 -7 -0 -0 -0 -0 -0 -0 -0 -0 -0 -0 -0 -0
-0 -0 -0 -0 -0 -2 -0 -0 -0 -0 -0 -0 -0 -0 -0 -0 -0 -0 -0 -0 -0 -0 -0 -0 -0 -0 -0 -0 -0 -0 -0 -0 -0 -0 -0 -0 -0 -0 -0 -0 -0 -0 -0 -0 -0
-0 -0 -0 -0 -0 -0 -0 -0 -0 -0 -0 -0 -0 -0 -0 -0 -0 -0 -0 -0 -0 -0 -0 -0 -0 -0 -0 -0 -0 -0 -0 -0 -0 -0 -0 -0 -0 -0 -0 -0 -0 -0 -0 -0 -0
-0 -0 -0 -0 -0 -0 -0 -6 -2 -0 -0 -0 -0 -0 -0 -0 -0 -0 -0 -0 -0 -0 -0 -0 -0 -0 -0 -0 -0 -0 -0 -0 -0 -0 -0 -0 -0 -0 -0 -0 -0 -0 -0 -0 -0
-0 -0 -0 -0 -0 -0 -0 -0 -2 -5 -0 -0 -0 -0 -0 -0 -0 -0 -0 -0 -0 -0 -0 -0 -0 -0 -0 -0 -0 -0 -0 -0 -0 -0 -0 -0 -0 -0 -0 -0 -0 -0 -0 -0 -0
-0 -0 -2 -0 -0 -0 -0 -0 -5 -0 -2 -0 -0 -0 -0 -0 -0 -0 -0 -0 -0 -0 -0 -0 -0 -0 -0 -0 -0 -0 -0 -0 -0 -0 -0 -0 -0 -0 -0 -0 -0 -0 -0 -0 -0
Wind_Speed
28 30 31 32 32 31 28 27 26 27 29 30 31 32 32 32 30 30 39 34 31 27 22 22 26 26 23 30 25 25 36 42 43 41 36 27 22 22 18 20 17 15 12 9 8
32 32 33 34 33 30 25 23 23 25 25 26 28 29 30 30 29 38 33 35 34 27 24 24 29 25 28 31 31 34 42 43 37 41 33 26 25 23 22 22 17 12 7 5 7
32 33 36 36 34 28 23 21 27 23 24 25 29 27 27 24 33 37 33 40 38 28 21 22 23 26 30 29 32 36 48 40 43 47 33 24 29 26 23 26 27 18 13 11 9
34 36 38 39 35 29 20 22 22 20 19 23 21 22 24 22 40 23 29 38 38 29 28 23 25 29 33 39 33 42 44 38 36 33 35 33 27 27 20 19 15 21 13 12 14
35 39 40 39 34 26 20 22 19 17 19 16 20 21 19 27 35 24 25 26 34 31 32 28 25 26 32 33 32 44 37 39 36 31 31 34 25 24 23 15 11 10 12 13 14
37 40 42 40 31 21 20 18 18 19 19 17 18 14 19 31 25 26 28 24 32 33 30 27 27 22 27 27 31 34 34 30 32 36 31 31 30 27 24 17 17 16 18 18 18
38 41 43 40 29 20 18 19 20 20 19 19 16 15 22 28 21 20 19 25 35 47 28 26 20 23 21 22 26 25 33 30 31 30 32 27 35 38 30 27 25 25 24 22 23
36 39 41 37 30 22 19 19 18 16 14 17 11 17 20 25 28 25 17 23 25 31 27 26 22 25 18 19 23 24 27 37 31 29 27 28 41 37 35 33 33 29 28 28 27
34 35 34 36 32 25 18 11 9 6 12 13 14 16 17 19 23 26 26 26 26 31 34 24 21 23 21 21 24 29 37 40 32 30 27 30 36 32 30 35 37 34 32 31 31
32 30 30 27 27 21 12 8 9 11 17 14 14 16 16 16 20 27 25 23 28 30 34 25 21 23 23 21 36 39 37 39 37 32 29 32 36 31 28 31 33 33 34 34 34
28 24 24 20 21 18 8 10 12 14 13 13 15 16 17 16 19 24 27 29 26 29 29 23 26 26 23 22 17 22 27 33 35 28 33 39 36 34 32 28 26 30 30 29 27
25 20 19 18 14 11 12 19 18 14 13 11 11 16 16 17 22 24 21 26 30 26 21 22 29 24 20 19 17 19 24 32 29 33 29 35 41 36 37 33 30 30 30 30 26
22 17 13 12 10 13 19 21 11 10 19 18 17 16 17 17 20 27 26 23 23 24 25 20 20 21 19 21 21 21 20 26 29 25 25 26 36 37 36 33 28 26 26 27 28
17 13 13 6 10 10 18 15 10 12 24 19 17 16 16 17 15 24 15 23 24 24 14 14 16 22 21 19 19 24 19 20 21 27 37 26 40 35 36 34 29 25 25 26 23
12 8 11 9 8 13 15 13 9 13 31 14 19 16 14 15 21 22 18 23 22 21 23 17 15 18 20 17 16 20 16 15 18 24 28 30 35 32 28 33 30 26 22 19 20
7 6 9 9 9 13 13 11 11 19 28 16 12 17 20 25 20 25 19 18 15 11 8 13 13 14 17 21 17 13 11 13 17 25 39 33 33 33 30 31 26 20 18 17 17
6 7 11 8 10 11 12 16 16 27 12 18 22 26 23 15 16 19 17 14 18 21 18 14 18 16 16 18 17 15 10 21 28 34 40 30 34 36 26 25 21 18 15 15 14
2 14 13 13 12 12 12 11 21 16 20 17 21 22 16 21 16 12 14 19 18 18 15 16 17 20 20 20 19 9 13 17 29 31 32 27 34 33 30 24 15 13 13 13 13
15 17 16 10 15 16 11 19 19 16 15 14 12 12 13 16 12 17 15 18 20 19 20 19 18 20 20 16 15 19 17 16 19 22 26 29 30 26 19 16 16 14 14 15 15
18 14 17 17 16 11 10 9 15 16 13 11 10 10 10 16 14 19 19 17 21 20 18 17 16 20 21 18 18 17 16 20 19 24 29 27 30 30 20 18 17 18 17 17 15
18 15 15 16 16 18 15 10 13 15 14 12 11 11 13 13 15 11 13 12 18 18 17 9 15 16 16 21 16 16 18 20 19 19 25 26 28 23 22 19 18 18 18 16 15
18 15 12 15 19 16 15 12 15 14 14 14 14 12 15 12 10 10 12 12 12 13 8 15 11 15 18 14 14 17 13 13 18 19 22 23 27 24 17 15 15 16 14 15 15
20 14 13 15 17 17 13 12 14 16 15 16 15 15 13 13 14 11 11 14 10 11 9 8 14 11 13 15 14 15 18 16 22 20 26 26 25 19 13 10 13 14 16 15 15
21 17 15 14 15 16 16 9 11 14 16 16 15 14 13 14 14 13 12 10 10 10 11 11 13 15 13 17 11 5 4 3 4 20 24 27 25 18 9 11 13 15 12 13 14
23 18 17 12 14 21 18 15 12 12 14 16 17 17 16 14 12 12 11 9 10 10 12 13 17 13 14 13 13 14 14 13 9 13 20 26 25 13 2 5 15 12 13 12 15
22 19 18 14 21 20 19 19 15 14 15 18 18 21 19 16 14 11 10 10 11 9 12 13 14 15 19 16 19 22 20 18 14 15 14 19 30 16 6 14 12 8 11 16 17
25 20 16 14 19 18 19 19 19 18 14 16 19 20 16 14 14 14 13 14 9 8 10 13 12 15 20 17 22 29 23 12 14 12 10 10 9 12 13 12 14 13 14 16 15
Wind_Direction
3 357 352 346 342 340 337 332 326 316 307 299 292 285 280 274 265 261 249 248 249 252 256 243 242 240 246 237 235 238 231 229 231 235 235 270 267 252 253 249 270 268 263 257 264
1 358 354 349 343 339 335 333 328 318 313 309 298 291 281 273 260 255 256 249 245 247 247 237 232 233 237 234 232 230 230 229 232 229 244 268 262 258 249 246 256 263 268 269 279
4 359 355 351 347 341 335 333 319 320 310 305 295 298 284 273 256 253 257 243 237 239 244 236 232 230 233 232 232 230 227 232 235 234 251 266 254 251 254 251 250 252 252 255 268
4 0 357 354 351 349 349 331 328 324 325 314 322 309 282 265 242 251 272 238 229 232 237 232 226 227 230 227 232 231 231 232 239 242 247 249 252 245 252 257 268 255 248 255 261
6 3 360 356 356 0 4 339 342 342 330 355 327 303 281 252 242 260 270 233 222 226 225 228 220 226 229 232 232 233 235 236 238 240 242 249 251 244 249 263 268 262 254 261 266
8 6 4 1 3 16 16 16 7 351 347 2 332 326 275 247 256 266 256 234 219 221 218 224 226 227 231 232 233 241 242 241 248 240 244 245 248 250 249 263 261 259 261 265 269
11 12 12 13 21 40 38 34 11 357 353 334 354 310 259 244 243 261 248 232 219 201 210 221 228 225 236 240 236 252 235 244 245 239 244 249 248 244 253 261 260 260 263 265 268
16 19 21 27 39 53 49 37 33 41 15 272 62 266 260 238 232 238 243 229 225 225 222 222 225 230 244 247 234 243 235 233 238 239 249 246 246 253 255 255 255 261 262 264 267
20 25 30 36 48 59 80 114 109 139 177 130 206 233 241 243 232 225 228 224 221 221 218 221 224 234 240 233 232 237 233 232 236 241 248 248 249 255 260 255 254 257 261 264 265
23 30 36 44 50 63 83 132 127 131 121 153 194 199 219 232 237 217 206 215 220 207 208 214 224 227 230 228 229 231 235 235 238 242 247 248 249 257 263 258 255 257 261 265 266
28 34 41 50 54 62 91 121 115 125 146 150 175 200 200 225 213 209 202 202 217 200 208 214 218 216 218 234 251 243 243 241 243 252 247 248 252 255 258 262 260 259 262 266 270
31 37 44 55 65 74 100 98 104 129 131 168 202 178 200 202 177 202 210 206 187 194 191 209 222 227 223 235 245 251 246 244 250 245 246 251 250 254 255 260 262 263 264 266 271
34 40 51 66 83 97 94 96 132 135 126 125 137 154 185 190 178 186 212 209 195 190 196 207 223 219 221 229 246 256 250 252 246 244 254 256 255 253 255 260 265 266 267 268 269
34 42 59 82 136 116 91 111 134 123 112 117 127 146 182 181 193 185 194 213 205 199 190 222 223 219 228 237 251 252 261 267 240 241 244 254 253 258 254 257 259 263 267 269 270
29 44 72 115 159 110 101 112 125 131 98 111 119 157 177 183 174 195 196 197 196 200 220 231 228 223 232 243 259 257 262 264 249 249 249 252 256 262 256 255 258 262 268 270 272
357 59 98 151 164 121 101 109 143 119 93 115 145 163 169 170 166 184 198 189 189 202 225 241 247 247 250 252 260 268 257 265 265 258 250 252 253 262 255 256 258 262 264 267 272
360 88 110 180 149 137 115 113 116 99 129 110 121 129 144 175 186 181 192 203 209 209 222 241 243 257 253 243 255 252 245 256 254 250 248 257 252 258 263 261 256 255 263 270 274
9 79 112 130 201 149 144 169 107 123 126 140 128 128 136 154 201 223 218 214 222 220 226 237 244 243 250 245 244 233 251 264 254 253 254 259 254 260 266 257 256 254 263 266 274
53 66 88 196 135 97 180 117 146 146 147 159 170 160 147 138 196 198 217 220 220 225 228 236 251 244 243 251 234 250 256 275 275 269 260 257 261 267 269 254 246 254 259 266 273
38 61 56 51 351 305 228 145 192 178 180 189 204 190 192 159 178 180 209 221 218 234 234 242 266 251 246 252 257 262 266 267 275 265 259 261 259 258 255 253 250 255 263 270 273
39 42 47 52 341 8 50 63 242 224 240 242 237 231 197 195 179 214 224 231 221 226 246 276 273 256 255 255 256 262 266 269 271 278 264 262 261 271 260 255 254 260 266 268 275
38 41 49 40 21 46 48 41 279 283 290 290 293 271 219 241 257 236 239 262 252 242 265 264 280 260 261 278 270 269 274 269 269 274 272 270 265 278 275 257 260 265 269 273 279
31 42 33 12 5 5 36 9 314 294 315 314 317 327 329 281 273 299 283 245 277 275 279 312 267 271 276 278 277 276 266 264 265 274 265 267 268 283 283 264 266 270 275 279 284
30 33 23 10 349 340 342 43 355 314 312 305 310 322 325 310 326 297 296 313 314 311 298 303 288 280 283 276 293 297 171 183 245 272 269 264 266 275 287 271 272 279 285 289 292
30 38 24 22 347 309 321 340 351 334 314 298 295 285 279 305 326 322 318 333 327 324 309 299 283 301 301 304 299 295 285 266 203 279 277 271 273 291 223 273 279 286 287 295 296
32 29 18 7 321 308 308 306 327 323 315 298 287 275 277 303 306 323 334 334 321 315 310 312 304 300 291 296 292 286 287 287 280 276 278 288 273 303 263 278 289 293 292 296 296
25 28 25 20 336 317 299 299 304 312 314 306 290 287 291 302 308 319 318 315 339 342 310 307 308 300 289 300 293 281 284 267 282 281 268 240 251 300 291 278 279 287 291 296 300